Regional Weather Roundup
Issued by NWS

Home | Current Version | Previous Version | Text Only | Print | Product List | Glossary Off
Versions: 1 2 3 4 5 6 7 8 9 10 11 12 13 14 15 16 17 18 19 20 21 22 23 24 25 26 27 28 29 30 31 32 33 34 35 36 37 38 39 40 41 42 43 44 45 46 47 48 49 50

000
ASUS43 KFSD 200210
RWRSD

WEATHER ROUNDUP FOR SOUTH DAKOTA
NATIONAL WEATHER SERVICE SIOUX FALLS SD
900 PM CDT THU APR 19 2018

NOTE: "FAIR" INDICATES FEW OR NO CLOUDS BELOW 12,000 FEET WITH NO
SIGNIFICANT WEATHER AND/OR OBSTRUCTIONS TO VISIBILITY.


SDZ001>005-009-010-012>017-200300-
NORTHWEST AND NORTH CENTRAL SOUTH DAKOTA

CITY           SKY/WX    TMP DP  RH WIND       PRES   REMARKS
BUFFALO          N/A     49  31  49 E17       30.13
FAITH            N/A     45  33  63 SE17      30.24S
MOBRIDGE       PTCLDY    44  33  65 SE8       30.30R
$$

SDZ012>016-024>037-041>051-057-063-072>074-200300-
SOUTHWEST AND SOUTH CENTRAL SOUTH DAKOTA

CITY           SKY/WX    TMP DP  RH WIND       PRES   REMARKS
RAPID CTY ARPT CLOUDY    50  32  50 SE21      30.15S
PIERRE         MOCLDY    41  29  62 SE12      30.32R
CUSTER         CLOUDY    45  25  45 SE8       30.16S
ELLSWORTH AFB  CLOUDY    48  34  57 E20       30.15S
PHILIP         MOCLDY    43  33  68 E14       30.25S
PINE RIDGE     CLOUDY    51  29  42 E9        30.16F
SPEARFISH      FAIR      46  32  57 E21G29    30.16R
WINNER         FAIR      38  29  70 SE14      30.32R
$$

SDZ004>011-016>023-039-040-200300-
NORTHEAST SOUTH DAKOTA

CITY           SKY/WX    TMP DP  RH WIND       PRES   REMARKS
ABERDEEN       PTCLDY    41  29  62 S9        30.39R
WATERTOWN      PTCLDY    39  28  64 S5        30.38S
BROOKINGS      CLOUDY    40  28  62 SE6       30.41S
SISSETON         N/A     41  34  76 S6        30.38S
$$

SDZ017-020-022-023-036>040-048>070-200300-
SOUTHEAST SOUTH DAKOTA

CITY           SKY/WX    TMP DP  RH WIND       PRES   REMARKS
SIOUX FALLS    MOCLDY    37  29  72 E8        30.41F
HURON          MOCLDY    39  28  64 SE5       30.38F
CHAMBERLAIN    PTCLDY    39  32  73 SE9       30.36R
MITCHELL       PTCLDY    37  28  70 SE10      30.39S
YANKTON        CLEAR     40  33  76 E10       30.39S
$$

ABBREVIATIONS USED IN REMARKS
   TC - TEMPERATURE IN CELSIUS
  WCI - WIND CHILL INDEX
   HX - HEAT INDEX
  VSB - VISIBILITY





USA.gov is the U.S. government's official web portal to all federal, state and local government web resources and services.